Location: Cold Norton
(51.6667°N, 0.6667°E)
Time: 07:32:10
(UTC+00:00)

Cosmos 1602 - Pass Details

Date: 18 November 2025
Orbit: 366 x 374 km, 82.5° (Epoch: 12 December)

Event Time Altitude Azimuth Distance (km) Brightness Sun altitude
Rises 17:38:01 0° 350° (N) 2,291 7.0 -14.4°
Reaches altitude 10° 17:40:02 10° 353° (N) 1,435 5.9 -14.7°
Maximum altitude 17:43:08 75° 78° (ENE) 412 3.0 -15.2°
Drops below altitude 10° 17:46:15 10° 165° (SSE) 1,432 5.9 -15.7°
Sets 17:48:15 0° 167° (SSE) 2,286 7.0 -16.0°
